Weather in Loymola

Russia / Republic of Karelia     61°58′54″N   31°44′42″E
temp.,
°C
wind,
m/s
gust,
m/s
humid.,
%
clouds,
%
prec.,
mm/h
press.,
hPa
HPBL,
m
3 august, tue
tue300:00+14ne41099100 8.4 997477
03:00+14ne41098100 32.4 991838
06:00+15ne1399100 20.9 988213
09:00+14wsw5898100 21.1 988673
12:00+14wsw71297100 1.8 992825
15:00+13wsw5119476 3.8 995808
18:00+12wsw61191100 0.3 9981115
21:00+9wsw51193100 0.6 1000899
4 august, wed
wed400:00+9w61295100 0.5 1002947
03:00+10wsw51289100 0.6 1004943
06:00+9wsw5138879 0.0 1006558
09:00+14w612630 0.0 10081230
12:00+17w610415 0.0 10091976
15:00+19wnw693647 0.0 10112649
18:00+17wnw364819 0.0 10121228
21:00+12wsw22695 0.0 101412
5 august, thu
thu500:00+11s117170 0.0 101512
03:00+12ssw2270100 0.0 101639
06:00+12ssw117398 0.0 101715
09:00+17ssw125558 0.0 1017448
12:00+18ssw234299 0.0 10181551
15:00+18w235097 0.0 1018606
18:00+19w124223 0.0 10181352
21:00+13ne116670 0.0 101811
6 august, fri
fri600:00+12se117138 0.0 101910
03:00+11ene227265 0.0 101921
06:00+11ene25785 0.0 1020115
09:00+16e355354 0.0 1019445
12:00+18ene244777 0.0 1019927
15:00+20e543987 0.0 10182049
18:00+19ne35465 0.0 10181011
21:00+14ne37630 0.0 1018136
7 august, sat
sat700:00+11ene38712 0.0 1019123
03:00+10ene39743 0.0 1018168
06:00+11ene411780 0.0 1018277
09:00+16e51056100 0.0 1018933
12:00+19e6943100 0.0 10171545
15:00+19e61041100 0.0 10161622
18:00+18e51147100 0.0 10151471
21:00+15e41158100 0.1 1015970